Погода в Матараме

Индонезия     8°35′19″S   116°07′00″E
темп.,
°C
ветер,
м/с
пор.,
м/с
влажн.,
%
обл.,
%
осадки,
мм/ч
давл.,
гПа
погр.,
м
18 мая, вт
вт1823:00+27ююв567482 0.0 1011520
02:00+27юв5676100 0.0 1009465
05:00+27юв567810 0.0 1009443
08:00+27ююв5678100 0.0 1011469
11:00+29ю5670100 0.0 1010775
14:00+29ююз877297 0.0 1007684
17:00+29ю99745 0.0 1007807
20:00+27юв7880100 0.1 1010576
19 мая, ср
ср1923:00+27юв558070 0.0 1010451
02:00+27юв568111 0.0 1009457
05:00+26юв68836 0.0 1008488
08:00+27юв578122 0.0 1009446
11:00+29ю22705 0.0 1009484
14:00+28юв22735 1.6 1007423
17:00+28юв45784 3.6 1008521
20:00+27ююв57825 7.8 1010363
20 мая, чт
чт2023:00+27юв67825 1.4 1010479
02:00+27юв558276 1.5 1009375
05:00+27юв568274 0.1 1009393
08:00+27юв448086 0.1 1011352
11:00+28ю35735 0.0 1010615
14:00+29ююв67745 1.3 1008711
17:00+28юв897717 1.7 1008770
20:00+27юв810825 2.3 1011704
21 мая, пт
пт2123:00+27юв7979100 0.2 1012581
02:00+27юв6879100 0.2 1010564
05:00+27юв688081 0.0 1010584
08:00+27ююв687954 0.0 1011692
11:00+29ю677099 0.0 10111017
14:00+29ююз887298 0.0 1008777
17:00+29ююв777297 0.2 1009995
20:00+27юв797820 0.2 1011679
22 мая, сб
сб2223:00+27юв710775 0.0 1012729
02:00+26ююв68775 0.0 1010672
05:00+26ююв68786 0.0 1010557
08:00+26ююв577888 0.0 1010526
11:00+28ююз3468100 0.0 1010721
14:00+29юз337118 0.0 1008856
17:00+29ююв557366 0.3 1008716
20:00+27ююв678432 3.5 1010434